Location: Bazugues
(43.4465°N, 0.3432°E)
Time: 07:45:33
(UTC+00:00)

Envisat - Visible Passes

Search period start: 08 March 2026 00:00
Search period end: 18 March 2026 00:00
Orbit: 761 x 763 km, 98.4° (Epoch: 7 March)

Date Brightness Start Highest point End Pass type
(mag) Time Alt. Az. Time Alt. Az. Time Alt. Az.
8 Mar 5.8 02:14:48 10° NNE 02:15:21 13° NNE 02:15:21 13° NNE visible
8 Mar 5.1 03:54:24 10° NNW 03:55:28 15° NNW 03:55:28 15° NNW visible
9 Mar 5.1 03:15:57 10° N 03:17:21 18° N 03:17:21 18° N visible
10 Mar 5.4 02:38:00 10° NNE 02:39:14 18° NNE 02:39:14 18° NNE visible
10 Mar 5.2 04:18:37 10° NNW 04:19:22 12° NW 04:19:22 12° NW visible
11 Mar 5.8 02:00:32 10° NNE 02:01:07 13° NE 02:01:07 13° NE visible
11 Mar 4.9 03:39:37 10° N 03:41:14 18° NNW 03:41:14 18° NNW visible
12 Mar 5.0 03:01:23 10° N 03:03:07 22° N 03:03:07 22° N visible
13 Mar 5.4 02:23:36 10° NNE 02:25:00 19° NNE 02:25:00 19° NNE visible
13 Mar 4.9 04:03:33 10° NNW 04:05:07 16° NNW 04:05:07 16° NNW visible
14 Mar 5.9 01:46:24 10° NE 01:46:52 12° NE 01:46:52 12° NE visible
14 Mar 4.7 03:24:56 10° N 03:26:59 23° NNW 03:26:59 23° NNW visible
15 Mar 4.9 02:46:52 10° NNE 02:48:52 24° NNE 02:48:52 24° NNE visible
15 Mar 5.1 04:28:05 10° NW 04:29:00 12° NW 04:29:00 12° NW visible
16 Mar 5.4 02:09:17 10° NNE 02:10:45 19° NE 02:10:45 19° NE visible
16 Mar 4.7 03:48:41 10° N 03:50:53 20° NNW 03:50:53 20° NNW visible
17 Mar 6.0 01:32:25 10° NE 01:32:37 11° NE 01:32:37 11° NE visible
17 Mar 4.5 03:10:19 10° N 03:12:46 28° N 03:12:46 28° N visible
